[[{"header":{"parameterUnit":"m.s-1","parameterCategory":1,"la1":30.2991,"la2":30.254,"lo1":-89.0895,"lo2":-89.0444,"dy":0.0017,"dx":0.0017,"nx":28,"ny":28,"refTime":"2024-10-03T21:00:00:Z","depth":0,"parameterNumber":2,"parameterNumberName":"U-component_of_WINDS"},"data":[0,0,0,0,0,0,0,0,0,0,0,0,0,0,0,0,0,0,0,0,0,0,0,0,0,0,0,0,0,0,0,0,0,0,0,0,0,0,0,0,0,0,0,0,0,0,0,0,0,0,0,0,0,0,0,0,0,0,-2.8246,-2.8246,0,-2.8211,-2.8211,-2.8211,-2.8106,-2.8104,-2.8101,-2.8099,-2.8066,-2.8068,-2.8069,0,0,0,0,0,0,0,0,0,0,0,0,0,-2.8225,-2.8226,-2.8246,-2.8246,-2.8245,-2.8211,-2.8211,-2.821,-2.8106,-2.8104,-2.8101,-2.8098,-2.8066,-2.8067,-2.8069,0,0,0,0,0,0,0,0,0,0,0,0,0,-2.8217,-2.8227,-2.8246,-2.8189,-2.8184,-2.8211,-2.8211,-2.821,-2.8107,-2.8104,-2.81,-2.8097,-2.8065,-2.8067,-2.8069,-2.815,0,0,-2.8075,-2.8076,0,0,0,0,0,0,0,0,-2.8218,-2.8218,-2.8198,-2.8193,-2.8187,-2.8159,-2.8191,-2.819,-2.8108,-2.8136,-2.8099,-2.8095,-2.81,-2.8099,-2.81,-2.8148,-2.8147,-2.8075,-2.8076,-2.8077,-2.8078,0,0,0,0,0,0,0,-2.8218,-2.8219,-2.8232,-2.8198,-2.8191,-2.8166,-2.8161,-2.8191,-2.8138,-2.8134,-2.8126,-2.8123,-2.8097,-2.8099,-2.8099,-2.8147,-2.8075,-2.8077,-2.8078,-2.8079,-2.8261,-2.8264,0,0,0,0,0,0,-2.8227,-2.822,-2.8234,-2.8231,-2.8194,-2.817,-2.8164,-2.8172,-2.8138,-2.8129,-2.8126,-2.8118,-2.8097,-2.8097,-2.8097,-2.8191,-2.8077,-2.8079,-2.808,-2.8257,-2.8262,-2.8266,0,0,0,0,0,0,-2.8227,-2.8229,-2.8235,-2.8224,-2.8222,-2.8174,-2.8183,-2.8173,-2.8175,-2.8132,-2.8122,-2.8138,-2.8094,-2.8094,-2.8138,-2.8188,-2.808,-2.8081,-2.8253,-2.8258,-2.8264,-2.8378,0,0,0,0,0,0,-2.8227,-2.823,-2.8259,-2.8225,-2.8223,-2.8276,-2.8186,-2.8175,-2.8178,-2.8168,-2.814,-2.8132,-2.8092,-2.8136,-2.814,-2.8189,-2.8083,-2.8248,-2.8255,-2.8262,-2.837,-2.8387,-2.8402,0,0,0,0,0,-2.8226,-2.8293,-2.8261,-2.8263,-2.8259,-2.8279,-2.8278,-2.8229,-2.8183,-2.8213,-2.8185,-2.8133,-2.8182,-2.8141,-2.8145,-2.8195,-2.8245,-2.8253,-2.8261,-2.8363,-2.8384,-2.8401,0,0,0,0,0,0,-2.8335,-2.8288,-2.8252,-2.8309,-2.8299,-2.8261,-2.8297,-2.8253,-2.8256,-2.8246,-2.8186,-2.8181,-2.8233,-2.8218,-2.8173,-2.8272,-2.8205,-2.8214,-2.828,-2.83,-2.8316,-2.8319,-2.8085,0,0,0,0,0,-2.8366,-2.8385,-2.8342,-2.8398,-2.8394,-2.8347,-2.8353,-2.8317,-2.8304,-2.8299,-2.8274,-2.8265,-2.8278,-2.8288,-2.8297,-2.8366,-2.836,-2.8403,-2.8419,-2.8433,-2.8442,-2.8479,-2.8499,-2.8293,-2.8293,-2.8293,0,0,-2.843,-2.8406,-2.8422,-2.8419,-2.8406,-2.8429,-2.8344,-2.837,-2.8387,-2.8303,-2.8343,-2.8325,-2.831,-2.8367,-2.8391,-2.8356,-2.8497,-2.8443,-2.8454,-2.8456,-2.849,-2.8509,-2.8527,-2.8299,-2.8298,-2.8297,0,0,-2.8558,-2.8541,-2.8586,-2.8575,-2.8557,-2.8525,-2.8536,-2.8505,-2.8489,-2.8528,-2.8466,-2.8485,-2.8508,-2.85,-2.85,-2.8625,-2.8578,-2.863,-2.8714,-2.8751,-2.8768,-2.8782,-2.8828,-2.8845,-2.8639,-2.8639,-2.864,0,-2.864,-2.867,-2.8614,-2.8645,-2.8647,-2.8571,-2.8617,-2.8609,-2.8596,-2.8599,-2.8559,-2.8588,-2.8572,-2.8627,-2.8658,-2.8659,-2.8671,-2.8634,-2.8769,-2.8783,-2.8795,-2.8839,-2.8857,-2.8646,-2.8645,-2.8645,-2.8644,0,-2.8772,-2.8794,-2.8832,-2.8821,-2.8826,-2.8864,-2.8816,-2.8828,-2.8791,-2.8764,-2.8805,-2.8783,-2.8788,-2.8798,-2.8762,-2.8849,-2.8828,-2.878,-2.8711,-2.8823,-2.8863,-2.8879,-2.8655,-2.8653,-2.8651,-2.8649,0,0,-2.8969,-2.8926,-2.8942,-2.8936,-2.891,-2.8927,-2.8962,-2.8965,-2.8978,-2.8971,-2.9,-2.9022,-2.8977,-2.8977,-2.8939,-2.8971,-2.9075,-2.8919,-2.8918,-2.8951,-2.9171,-2.9208,-2.9229,-2.9042,-2.9045,-2.9048,-2.9173,0,-2.9092,-2.9149,-2.91,-2.9167,-2.9188,-2.9116,-2.9147,-2.9135,-2.9111,-2.9125,-2.9098,-2.9115,-2.9055,-2.9054,-2.9082,-2.9056,-2.9118,-2.9046,-2.9071,-2.9073,-2.9079,-2.9249,-2.9289,-2.9408,-2.9188,-2.919,-2.9192,0,-2.9243,-2.9242,-2.9311,-2.9282,-2.9289,-2.9317,-2.9317,-2.9331,-2.9317,-2.9297,-2.9297,-2.9251,-2.9284,-2.9216,-2.9262,-2.9215,-2.9222,-2.921,-2.9214,-2.9216,-2.9141,-2.9258,-2.9444,-2.9463,-2.9216,-2.9214,-2.9212,0,-2.9382,-2.9399,-2.9442,-2.9439,-2.9406,-2.9428,-2.9415,-2.9397,-2.9403,-2.9403,-2.9406,-2.9411,-2.9414,-2.9419,-2.9376,-2.9329,-2.9429,-2.9356,-2.9415,-2.9416,-2.944,-2.944,-2.9633,-2.9442,-2.9442,-2.9441,-2.9441,0,-2.9525,-2.9571,-2.9504,-2.9532,-2.9581,-2.9525,-2.9575,-2.9555,-2.954,-2.9563,-2.9501,-2.9524,-2.9464,-2.9481,-2.9448,-2.9493,-2.9494,-2.948,-2.9471,-2.9487,-2.9489,-2.9492,-2.9484,-2.9446,-2.9445,-2.9444,-2.9443,0,-2.969,-2.9647,-2.969,-2.9655,-2.9647,-2.9685,-2.9655,-2.9679,-2.965,-2.968,-2.9684,-2.9639,-2.9656,-2.9613,-2.9624,-2.9601,-2.9666,-2.9643,-2.9671,-2.9665,-2.9727,-2.9723,-2.993,-2.9956,-2.9747,-2.9749,-2.9751,0,-2.9785,-2.9818,-2.9786,-2.9797,-2.9787,-2.9805,-2.981,-2.9756,-2.9765,-2.9751,-2.9778,-2.9789,-2.9796,-2.9827,-2.9796,-2.9804,-2.9782,-2.9854,-2.9783,-2.9798,-2.9786,-2.9785,-2.9789,-2.987,-2.9872,-2.9874,-2.9876,0,-2.996,-2.9937,-2.9946,-2.9949,-2.9957,-2.9956,-2.9952,-2.9964,-2.9906,-2.9919,-2.9935,-2.9941,-2.9951,-2.9965,-2.9966,-2.9954,-2.9907,-2.9898,-2.9913,-2.993,-2.9946,-2.9941,-2.9714,-2.9894,-2.9893,-2.9891,-2.989,-2.9889,-3.0093,-3.012,-3.0102,-3.0115,-3.0106,-3.0103,-3.0125,-3.0098,-3.011,-3.0115,-3.0082,-3.0106,-3.0091,-3.0088,-3.0081,-3.01,-3.0067,-3.0087,-3.0093,-3.0099,-3.0111,-2.9942,-3.0099,-3.0099,-3.0098,-3.0098,-3.0097,0,-3.0266,-3.0251,-3.0263,-3.0259,-3.027,-3.0222,-3.0215,-3.0227,-3.0249,-3.0239,-3.0246,-3.0266,-3.0278,-3.0249,-3.0257,-3.0278,-3.0256,-3.0282,-3.0281,-3.0279,-3.0138,-3.0126,-3.0299,-3.0299,-3.0299,-3.0299,-3.0299,-3.0299,-3.0358,-3.0401,-3.0376,-3.0415,-3.0399,-3.0421,-3.0421,-3.0419,-3.0411,-3.0435,-3.0445,-3.0425,-3.0407,-3.0414,-3.0424,-3.0415,-3.0422,-3.0455,-3.0439,-3.0309,-3.0289,-3.027,-3.0259,-3.0457,-3.0457,-3.0579,-3.058,-3.0581]},{"header":{"parameterUnit":"m.s-1","parameterCategory":1,"la1":30.2991,"la2":30.254,"lo1":-89.0895,"lo2":-89.0444,"dy":0.0017,"dx":0.0017,"nx":28,"ny":28,"refTime":"2024-10-03T21:00:00:Z","depth":0,"parameterNumber":3,"parameterNumberName":"V-component_of_WINDS"},"data":[0,0,0,0,0,0,0,0,0,0,0,0,0,0,0,0,0,0,0,0,0,0,0,0,0,0,0,0,0,0,0,0,0,0,0,0,0,0,0,0,0,0,0,0,0,0,0,0,0,0,0,0,0,0,0,0,0,0,-1.9847,-1.9846,0,-1.9814,-1.9813,-1.9813,-1.9759,-1.9758,-1.9757,-1.9756,-1.9723,-1.9723,-1.9723,0,0,0,0,0,0,0,0,0,0,0,0,0,-1.9864,-1.9864,-1.9847,-1.9846,-1.9846,-1.9814,-1.9813,-1.9813,-1.9759,-1.9758,-1.9757,-1.9756,-1.9723,-1.9723,-1.9723,0,0,0,0,0,0,0,0,0,0,0,0,0,-1.9846,-1.9864,-1.9847,-1.9815,-1.9812,-1.9814,-1.9813,-1.9813,-1.976,-1.9758,-1.9757,-1.9755,-1.9723,-1.9723,-1.9723,-1.9753,0,0,-1.9723,-1.9724,0,0,0,0,0,0,0,0,-1.9847,-1.9846,-1.982,-1.9818,-1.9814,-1.9789,-1.9807,-1.9793,-1.976,-1.978,-1.9756,-1.9755,-1.9746,-1.9744,-1.9742,-1.9752,-1.975,-1.9723,-1.9724,-1.9724,-1.9724,0,0,0,0,0,0,0,-1.9849,-1.9847,-1.9834,-1.982,-1.9816,-1.9803,-1.9799,-1.9804,-1.9772,-1.9778,-1.9774,-1.9771,-1.9744,-1.9742,-1.974,-1.975,-1.9723,-1.9724,-1.9724,-1.9724,-1.9782,-1.9784,0,0,0,0,0,0,-1.9854,-1.9848,-1.9835,-1.9833,-1.9827,-1.9804,-1.9799,-1.9799,-1.9772,-1.9766,-1.9772,-1.9768,-1.9742,-1.974,-1.9739,-1.9772,-1.9724,-1.9724,-1.9724,-1.9781,-1.9782,-1.9784,0,0,0,0,0,0,-1.9855,-1.9854,-1.9836,-1.9839,-1.9836,-1.9805,-1.9805,-1.9799,-1.9796,-1.9767,-1.9761,-1.9775,-1.9741,-1.9739,-1.975,-1.977,-1.9724,-1.9724,-1.9779,-1.9781,-1.9783,-1.9838,0,0,0,0,0,0,-1.9856,-1.9854,-1.9865,-1.984,-1.9836,-1.9848,-1.9806,-1.9799,-1.9796,-1.9791,-1.9768,-1.9763,-1.974,-1.975,-1.975,-1.9769,-1.9724,-1.9777,-1.978,-1.9783,-1.9835,-1.9842,-1.9849,0,0,0,0,0,-1.9856,-1.9883,-1.9866,-1.9865,-1.9849,-1.9849,-1.9847,-1.9819,-1.9798,-1.9809,-1.979,-1.9764,-1.9768,-1.9752,-1.9751,-1.9771,-1.9776,-1.9779,-1.9782,-1.9831,-1.9841,-1.9849,0,0,0,0,0,0,-1.9912,-1.9879,-1.986,-1.9879,-1.9867,-1.984,-1.9853,-1.983,-1.9824,-1.982,-1.9785,-1.9781,-1.9796,-1.9784,-1.9767,-1.9798,-1.9768,-1.9771,-1.9805,-1.9814,-1.9821,-1.9823,-1.9724,0,0,0,0,0,-1.9926,-1.9928,-1.9899,-1.9919,-1.9914,-1.9884,-1.9883,-1.9863,-1.9849,-1.9844,-1.9826,-1.9814,-1.9813,-1.9812,-1.9809,-1.9832,-1.9827,-1.9845,-1.9853,-1.9858,-1.9862,-1.9873,-1.9881,-1.9795,-1.9795,-1.9795,0,0,-1.9956,-1.9938,-1.9942,-1.9929,-1.9918,-1.9921,-1.9881,-1.9886,-1.9888,-1.9845,-1.9854,-1.9841,-1.9825,-1.9842,-1.9849,-1.9833,-1.9884,-1.9863,-1.9868,-1.9868,-1.9877,-1.9885,-1.9892,-1.9798,-1.9797,-1.9797,0,0,-2.0011,-1.9998,-2.0012,-2.0001,-1.9984,-1.9965,-1.9968,-1.9944,-1.9933,-1.9942,-1.991,-1.9911,-1.991,-1.9899,-1.9894,-1.9945,-1.9921,-1.9945,-1.9982,-1.9993,-2.0,-2.0006,-2.0023,-2.003,-1.9949,-1.9949,-1.9949,0,-2.005,-2.0054,-2.0023,-2.003,-2.0025,-1.9986,-2.0,-1.9991,-1.9974,-1.9972,-1.9954,-1.995,-1.9937,-1.9951,-1.9963,-1.996,-1.9963,-1.9948,-2.0001,-2.0007,-2.0012,-2.0028,-2.0035,-1.9952,-1.9951,-1.9951,-1.9951,0,-2.0103,-2.0105,-2.0119,-2.0103,-2.01,-2.0111,-2.0081,-2.0082,-2.0061,-2.0043,-2.0052,-2.0035,-2.0027,-2.0029,-2.0009,-2.004,-2.003,-2.0007,-1.9976,-2.0023,-2.0039,-2.0045,-1.9956,-1.9955,-1.9954,-1.9953,0,0,-2.0193,-2.0159,-2.0164,-2.0156,-2.0134,-2.0136,-2.0144,-2.0137,-2.0138,-2.0127,-2.0133,-2.0132,-2.011,-2.0104,-2.0083,-2.0093,-2.0133,-2.0068,-2.0067,-2.0081,-2.0166,-2.0183,-2.0191,-2.0117,-2.0118,-2.0119,-2.0167,0,-2.0244,-2.0257,-2.0229,-2.0248,-2.025,-2.0212,-2.022,-2.0207,-2.019,-2.019,-2.0171,-2.0171,-2.0142,-2.0138,-2.0146,-2.0127,-2.015,-2.0123,-2.0122,-2.0123,-2.0128,-2.0199,-2.0218,-2.0264,-2.0173,-2.0174,-2.0174,0,-2.0306,-2.0297,-2.0317,-2.0293,-2.0293,-2.03,-2.029,-2.029,-2.0275,-2.0262,-2.0255,-2.0229,-2.0236,-2.0206,-2.0214,-2.0196,-2.0194,-2.0184,-2.0185,-2.0185,-2.0152,-2.02,-2.0278,-2.0285,-2.0183,-2.0183,-2.0182,0,-2.0369,-2.0363,-2.0374,-2.0369,-2.0341,-2.0347,-2.0335,-2.0318,-2.0315,-2.0307,-2.0304,-2.0297,-2.0293,-2.0287,-2.026,-2.0241,-2.0272,-2.0239,-2.0261,-2.0262,-2.027,-2.0269,-2.0348,-2.0268,-2.0268,-2.0268,-2.0268,0,-2.0429,-2.0443,-2.0402,-2.0409,-2.0423,-2.0391,-2.0405,-2.039,-2.0375,-2.0378,-2.0345,-2.0348,-2.0312,-2.0312,-2.0291,-2.0301,-2.0299,-2.0289,-2.0283,-2.0292,-2.0293,-2.029,-2.0286,-2.027,-2.0269,-2.0269,-2.0269,0,-2.0503,-2.0477,-2.0486,-2.0459,-2.0452,-2.0464,-2.044,-2.0445,-2.0426,-2.043,-2.0429,-2.0399,-2.0397,-2.0369,-2.0361,-2.0346,-2.0365,-2.0353,-2.037,-2.0366,-2.0389,-2.0388,-2.0469,-2.0478,-2.0393,-2.0393,-2.0394,0,-2.0544,-2.0553,-2.0527,-2.0526,-2.0516,-2.0516,-2.0512,-2.048,-2.0478,-2.046,-2.0468,-2.0462,-2.0456,-2.0454,-2.0432,-2.0425,-2.0413,-2.0442,-2.0411,-2.042,-2.0413,-2.0413,-2.0413,-2.0448,-2.0449,-2.045,-2.0451,0,-2.0618,-2.0604,-2.06,-2.0592,-2.0588,-2.058,-2.057,-2.0571,-2.0536,-2.0535,-2.0532,-2.0527,-2.0518,-2.0513,-2.0502,-2.049,-2.0465,-2.0461,-2.0465,-2.0474,-2.0484,-2.0479,-2.0388,-2.0459,-2.0458,-2.0458,-2.0457,-2.0457,-2.0676,-2.0683,-2.0665,-2.0661,-2.065,-2.0641,-2.0644,-2.0625,-2.0622,-2.0612,-2.0593,-2.0593,-2.0576,-2.0559,-2.0549,-2.0548,-2.0533,-2.054,-2.0541,-2.0544,-2.0548,-2.0484,-2.0546,-2.0545,-2.0545,-2.0545,-2.0545,0,-2.0749,-2.0735,-2.0732,-2.0719,-2.0716,-2.0692,-2.0679,-2.0678,-2.0678,-2.0664,-2.0659,-2.0655,-2.065,-2.0627,-2.0619,-2.0623,-2.0611,-2.0622,-2.0621,-2.0619,-2.0562,-2.0559,-2.0631,-2.0631,-2.0631,-2.0631,-2.0631,-2.0631,-2.0786,-2.0796,-2.078,-2.0783,-2.0769,-2.0768,-2.0763,-2.0754,-2.0743,-2.074,-2.0736,-2.072,-2.0703,-2.0693,-2.0687,-2.068,-2.0679,-2.0694,-2.0684,-2.0631,-2.0623,-2.0615,-2.0612,-2.0694,-2.0694,-2.074,-2.074,-2.0741]}]]